Retour au catalogue

STARLINK-35735

ActifCommunicationsVLEO
NORAD 66231·PAYLOAD·🇺🇸 United States

Lancé Oct 28, 2025 depuis Vandenberg Space Force Base

Loading…

Prochains Passages (prochaines 24 heures)

TLE

FraisSource: CelesTrak SupGP

Époque: Sep 14, 2026, 15:27 UTC

1 66231C 25244AB  26257.64423611 -.00049950  00000+0 -14757-2 0  2575
2 66231  53.1585  69.2657 0001230  90.0901 180.1025 15.34417540    19

Suivez STARLINK-35735 en temps réel avec AllMySat

Download on the App Store